DW3841 Weather Reports


time (UTC)temp
C
wind
direction
speed
KPH
gust
KPH
rain 1hr
cm
rain 24hr
cm
rain mn
cm
humidity
%
barometer
mb
20190423101604 13 242 0.0 0.0 0.00 0.00 0.00 87 1028.7
20190423100141 13 243 0.0 0.0 0.00 0.00 0.00 87 1028.8
20190423094604 13 268 0.0 0.0 0.00 0.00 0.00 87 1028.7
20190423093048 13 267 0.0 1.6 0.00 0.00 0.00 87 1028.6
20190423091552 13 6 0.0 0.0 0.00 0.00 0.00 86 1028.6
20190423090111 13 173 0.0 1.6 0.00 0.00 0.00 86 1028.6
20190423084609 13 2 0.0 1.6 0.00 0.00 0.00 87 1028.7
20190423083111 13 2 0.0 0.0 0.00 0.00 0.00 87 1028.4
20190423081601 13 2 0.0 0.0 0.00 0.00 0.00 87 1028.3
20190423080036 14 343 0.0 0.0 0.00 0.00 0.00 86 1028.1
20190423074626 15 343 0.0 0.0 0.00 0.00 0.00 84 1028.0
20190423073059 15 343 0.0 0.0 0.00 0.00 0.00 83 1027.9
20190423071620 15 343 0.0 0.0 0.00 0.00 0.00 82 1027.8
20190423070128 16 61 0.0 0.0 0.00 0.00 0.00 81 1027.8
20190423064702 16 34 0.0 1.6 0.00 0.00 0.00 81 1027.7
20190423063114 16 94 0.0 1.6 0.00 0.00 0.00 80 1027.6
20190423061533 16 65 0.0 0.0 0.00 0.00 0.00 80 1027.8
20190423060047 16 65 0.0 0.0 0.00 0.00 0.00 80 1027.7
20190423054557 16 65 0.0 3.2 0.00 0.00 0.00 78 1027.8
20190423053058 16 318 0.0 1.6 0.00 0.00 0.00 78 1027.7
20190423051637 16 180 0.0 3.2 0.00 0.00 0.00 78 1027.6
20190423050057 16 72 0.0 4.8 0.00 0.00 0.00 78 1027.8
20190423044547 16 33 0.0 0.0 0.00 0.00 0.00 78 1027.9
20190423043056 16 97 0.0 3.2 0.00 0.00 0.00 77 1028.0
20190423041532 16 2 0.0 3.2 0.00 0.00 0.00 77 1028.0
20190423040024 16 159 0.0 3.2 0.00 0.00 0.00 78 1028.0
20190423034528 16 66 0.0 1.6 0.00 0.00 0.00 79 1028.2
20190423033107 15 65 0.0 3.2 0.00 0.00 0.00 78 1028.3
20190423031530 15 306 0.0 1.6 0.00 0.00 0.00 79 1028.3
20190423030019 16 269 0.0 1.6 0.00 0.00 0.00 79 1028.5
20190423024537 15 37 0.0 1.6 0.00 0.00 0.00 79 1028.5
20190423023041 15 37 0.0 0.0 0.00 0.00 0.00 80 1028.9
20190423021518 15 86 0.0 4.8 0.00 0.00 0.00 81 1029.1
20190423020007 15 168 0.0 3.2 0.00 0.00 0.00 81 1029.2
20190423014532 15 134 0.0 0.0 0.00 0.00 0.00 82 1029.3
20190423013004 15 128 0.0 1.6 0.00 0.00 0.00 81 1029.4
20190423011502 14 45 0.0 1.6 0.00 0.00 0.00 82 1029.4
20190423010240 14 152 0.0 4.8 0.00 0.00 0.00 81 1029.4
20190423004618 14 21 0.0 1.6 0.00 0.00 0.00 83 1029.4
20190423003205 14 304 0.0 3.2 0.00 0.00 0.00 84 1029.4
20190423001621 13 93 0.0 3.2 0.00 0.00 0.00 84 1029.5
20190423000127 13 97 0.0 0.0 0.00 0.00 0.00 84 1029.6
20190422234706 13 44 0.0 3.2 0.00 0.00 0.00 85 1029.6
20190422233207 13 49 0.0 3.2 0.00 0.00 0.00 86 1029.6
20190422231734 13 101 0.0 1.6 0.00 0.00 0.00 86 1029.6
20190422230118 12 339 0.0 3.2 0.00 0.00 0.00 87 1029.7
20190422224701 12 134 0.0 1.6 0.00 0.00 0.00 86 1029.7
20190422223145 12 56 0.0 1.6 0.00 0.00 0.00 87 1029.8
20190422221639 12 58 0.0 1.6 0.00 0.00 0.00 87 1029.8
20190422220111 12 58 0.0 0.0 0.00 0.00 0.00 88 1029.6
20190422214607 12 58 0.0 0.0 0.00 0.00 0.00 88 1029.7
20190422213050 12 58 0.0 0.0 0.00 0.00 0.00 88 1029.5
20190422211545 12 57 0.0 0.0 0.00 0.00 0.00 88 1029.2
20190422210046 12 58 0.0 0.0 0.00 0.00 0.00 88 1029.2
20190422204604 12 57 0.0 0.0 0.00 0.00 0.00 88 1029.0
20190422203145 12 58 0.0 0.0 0.00 0.00 0.00 88 1028.9
20190422201553 12 56 0.0 0.0 0.00 0.00 0.00 88 1028.8
20190422200124 12 56 0.0 0.0 0.00 0.00 0.00 88 1028.6
20190422194633 12 57 0.0 0.0 0.00 0.00 0.00 88 1028.5
20190422193135 12 57 0.0 0.0 0.00 0.00 0.00 88 1028.4
20190422191547 12 56 0.0 0.0 0.00 0.00 0.00 88 1028.3
20190422190121 12 57 0.0 0.0 0.00 0.00 0.00 88 1028.3
20190422184635 12 57 0.0 0.0 0.00 0.00 0.00 89 1028.1
20190422183128 12 57 0.0 0.0 0.00 0.00 0.00 88 1028.0
20190422181625 12 58 0.0 1.6 0.00 0.00 0.00 88 1027.9
20190422180046 12 47 0.0 1.6 0.00 0.00 0.00 88 1027.7
20190422174555 12 116 0.0 1.6 0.00 0.00 0.00 88 1027.7
20190422173111 12 37 0.0 1.6 0.00 0.00 0.00 88 1027.8
20190422171544 12 294 0.0 1.6 0.00 0.00 0.00 87 1027.9
20190422170100 12 237 0.0 1.6 0.00 0.00 0.00 87 1027.9
20190422164529 12 274 0.0 3.2 0.00 0.00 0.00 87 1027.9
20190422163026 12 111 0.0 3.2 0.00 0.00 0.00 87 1028.1
20190422161524 12 336 0.0 1.6 0.00 0.00 0.00 88 1028.2
20190422160041 12 280 0.0 1.6 0.00 0.00 0.00 88 1028.3
20190422154545 12 124 0.0 3.2 0.00 0.00 0.00 87 1028.3
20190422153021 12 258 0.0 0.0 0.00 0.00 0.00 87 1028.6
20190422151536 12 260 0.0 1.6 0.00 0.00 0.00 86 1028.8
20190422150010 12 125 0.0 1.6 0.00 0.00 0.00 86 1028.9
20190422144526 12 117 0.0 4.8 0.00 0.05 0.00 86 1028.8
20190422143011 12 87 0.0 0.0 0.00 0.05 0.00 85 1028.9
20190422141706 12 195 0.0 0.0 0.00 0.05 0.00 85 1028.9
20190422140153 12 195 0.0 0.0 0.00 0.05 0.00 84 1029.1
20190422134638 12 195 0.0 0.0 0.00 0.10 0.05 83 1029.0
20190422133153 12 195 0.0 0.0 0.00 0.10 0.05 83 1029.0
20190422131628 12 195 0.0 0.0 0.00 0.10 0.05 82 1029.2
20190422130134 12 195 0.0 0.0 0.00 0.10 0.05 81 1029.4
20190422124716 12 195 0.0 1.6 0.00 0.10 0.05 81 1029.3
20190422123121 12 130 0.0 1.6 0.00 0.10 0.05 81 1029.4
20190422121719 12 132 0.0 0.0 0.00 0.10 0.05 81 1029.4
20190422120212 12 99 0.0 0.0 0.00 0.10 0.05 82 1029.4
20190422114734 12 99 0.0 0.0 0.00 0.10 0.05 82 1029.4
20190422113132 12 99 0.0 0.0 0.00 0.10 0.05 81 1029.4
20190422111626 12 192 0.0 0.0 0.00 0.10 0.05 80 1029.2
20190422110208 12 64 0.0 1.6 0.00 0.10 0.05 82 1029.1
20190422104607 12 61 0.0 0.0 0.00 0.10 0.05 83 1028.9
20190422103141 12 61 0.0 1.6 0.00 0.10 0.05 82 1029.0